Theta_e
286 286 285 285 284 284 282 281 280 280 279 279 279 279 279 279 280 278 279 279 279 278 277 277 277 276 277 276 276 276 277 276 277 277 276 277 276 276 277 277 277 276
286 287 287 284 284 283 281 280 280 279 279 279 279 279 279 278 278 278 278 278 277 277 277 276 276 276 275 275 275 276 275 275 275 278 277 277 277 277 277 277 276 277
284 283 283 281 281 280 280 280 279 278 278 279 279 279 279 279 277 277 278 278 276 276 276 276 275 275 275 275 275 275 275 275 276 277 277 277 277 277 277 277 277 276
283 283 282 281 280 279 279 278 278 278 278 278 278 279 279 280 277 277 277 278 275 276 275 275 275 274 274 275 275 275 275 277 277 277 277 277 277 278 277 277 277 276
282 281 280 280 280 280 279 278 277 277 277 277 277 278 278 277 277 276 276 276 275 275 275 274 274 274 275 274 275 274 276 277 277 277 277 276 277 278 278 277 276 276
281 280 280 279 279 278 278 278 277 277 277 277 277 278 276 277 276 276 276 275 275 275 274 274 274 274 274 274 274 275 276 276 277 277 277 276 277 278 278 277 276 275
280 279 279 278 278 278 277 277 278 278 277 277 277 276 276 276 276 275 275 275 274 275 273 273 273 273 274 274 275 276 276 276 277 277 276 276 277 277 278 277 275 274
279 278 278 277 277 277 277 277 276 277 277 276 276 276 276 276 275 275 275 275 275 273 273 273 273 273 273 273 275 276 276 277 276 276 276 276 276 276 277 276 274 273
279 278 277 277 277 277 276 277 277 277 277 276 276 276 276 276 276 275 275 274 274 274 273 273 273 273 273 273 275 275 276 276 276 276 276 276 276 276 276 275 274 273
278 278 277 277 277 276 276 276 277 277 278 276 276 276 275 275 276 275 275 274 274 273 272 272 273 273 273 273 275 276 276 276 276 276 276 276 276 276 275 275 273 273
278 277 277 277 276 276 276 276 276 276 277 277 276 276 275 275 275 275 274 274 274 273 272 272 272 273 273 273 275 276 276 276 276 276 277 277 276 276 275 274 273 273
277 277 277 276 276 276 276 276 276 276 276 276 277 275 275 275 274 274 275 273 273 273 272 272 272 273 273 274 275 276 276 276 277 277 277 277 276 275 274 274 273 273
277 277 277 277 276 276 276 276 276 276 276 276 276 275 274 274 274 273 274 273 273 273 272 272 272 273 273 275 276 276 277 276 276 277 277 277 276 274 274 274 274 273
277 277 276 276 276 276 276 276 276 276 276 276 276 275 274 274 273 273 273 273 273 272 272 272 272 272 273 275 277 277 277 276 276 277 277 276 275 274 274 274 274 273
277 276 276 276 276 276 276 276 276 276 276 275 275 274 275 274 274 273 272 272 272 271 271 272 272 272 273 275 277 277 277 277 277 277 276 275 274 273 273 273 273 273
277 277 276 276 276 276 276 276 275 275 275 274 274 274 273 273 273 272 271 271 271 271 271 271 271 270 275 278 279 277 277 277 277 277 276 274 273 273 273 273 273 273
277 277 276 276 276 276 276 275 275 275 274 274 273 273 273 272 272 271 271 271 271 270 270 270 271 271 276 278 279 279 278 277 277 276 275 274 274 274 273 273 272 273
277 277 276 276 276 275 275 275 274 274 273 273 272 272 272 272 271 271 271 270 270 270 270 271 270 274 277 278 279 278 278 278 276 274 274 274 274 274 274 273 272 272
277 276 276 275 275 275 275 274 273 274 273 272 272 272 272 271 271 271 270 270 269 270 269 270 270 274 277 278 278 278 279 278 275 274 273 274 274 274 274 273 272 271
277 276 276 275 275 275 274 274 273 273 273 272 272 272 271 271 271 270 270 269 269 269 269 269 270 274 277 278 278 278 278 278 275 274 274 274 274 274 274 273 272 271
277 276 276 275 275 274 273 273 273 272 272 271 271 272 271 270 271 269 269 269 269 269 269 269 270 275 276 277 277 278 278 277 274 274 274 273 274 274 274 273 273 273
277 276 276 275 274 274 274 273 273 272 272 271 271 271 271 270 270 269 269 269 269 268 268 269 269 275 276 277 277 278 278 275 274 273 273 273 274 274 274 274 274 273
277 277 276 275 274 274 273 273 273 272 271 271 271 271 271 269 269 269 268 268 268 268 268 269 269 272 275 276 277 277 277 274 273 273 273 273 273 274 274 274 274 273
277 277 276 275 274 274 273 273 272 271 271 271 271 270 270 269 269 268 268 268 268 268 268 269 269 271 274 275 276 277 276 274 273 273 272 272 273 274 274 274 274 274
277 276 276 275 274 274 273 272 272 272 270 270 270 270 269 269 268 268 268 268 268 268 270 270 269 270 274 275 276 276 275 274 274 272 272 272 272 273 274 274 273 273
277 276 275 275 274 272 271 272 271 271 270 270 269 269 269 269 268 268 268 268 268 268 269 269 268 268 269 275 275 276 276 275 274 272 271 272 273 273 272 272 272 272
Wind_Speed
5 5 6 6 6 5 4 4 3 3 2 2 3 2 4 3 3 4 4 5 5 5 4 4 4 5 5 4 4 3 4 4 4 4 4 5 4 5 5 7 7 6
5 6 6 6 6 4 3 3 3 3 2 2 2 2 2 3 3 4 5 5 4 4 4 4 4 4 4 4 4 4 5 5 5 5 4 5 5 6 6 7 6 6
5 6 6 5 5 4 4 3 3 3 3 2 2 3 3 3 4 4 4 4 4 4 4 4 4 4 4 4 3 4 4 5 5 6 6 6 5 6 5 5 6 6
6 5 5 4 4 4 3 3 3 3 2 4 3 3 3 3 4 4 4 4 3 3 4 4 4 3 4 4 4 5 4 4 5 5 5 5 5 5 5 5 5 5
6 4 4 4 4 3 3 3 3 3 3 3 3 3 5 4 4 4 3 3 3 3 3 3 3 3 3 4 5 5 4 4 5 6 5 5 5 5 5 5 6 6
4 4 4 4 3 4 4 3 3 3 3 4 3 3 4 4 3 3 3 3 3 3 3 3 3 3 4 5 5 4 5 5 5 6 6 6 5 5 4 5 6 7
5 4 4 3 3 3 4 3 3 3 3 3 3 4 3 3 3 2 3 3 3 3 3 3 4 4 4 4 4 5 5 5 5 6 6 6 6 6 6 5 5 5
4 4 4 3 4 3 4 3 3 3 3 3 4 3 3 2 2 2 2 2 2 2 3 3 3 3 3 4 4 5 6 4 5 6 6 6 6 6 6 3 4 5
4 4 3 3 4 4 4 3 3 3 3 3 3 2 2 1 2 2 2 1 1 2 3 3 3 2 2 3 4 5 5 5 5 6 6 6 7 7 6 4 5 5
4 3 3 3 4 3 4 3 3 3 2 3 2 1 2 2 2 2 1 1 1 2 3 3 3 1 2 3 4 5 5 6 6 6 6 6 6 6 7 5 5 5
4 3 3 4 4 3 3 3 3 2 1 1 2 2 2 2 3 2 1 2 2 3 3 3 2 1 2 2 4 5 5 6 6 6 6 6 6 6 6 5 5 5
4 3 4 4 4 3 3 2 1 1 1 1 1 2 2 2 3 3 1 2 2 2 3 3 1 0 2 2 4 5 5 5 6 6 6 6 5 5 5 5 5 5
4 4 4 4 4 3 2 2 1 0 0 1 0 1 2 3 3 3 2 1 2 2 3 3 2 1 2 3 5 5 5 6 6 6 7 6 4 3 5 5 5 4
4 3 4 4 3 3 2 1 1 0 0 0 1 2 2 2 2 2 2 1 1 2 3 3 2 2 3 4 5 6 6 6 6 7 7 7 5 4 5 5 4 4
3 3 3 4 3 3 2 1 1 0 1 1 2 2 2 2 2 1 2 2 2 2 3 3 2 3 4 4 6 6 6 7 7 7 7 7 6 5 5 4 4 4
4 4 4 3 3 3 2 2 0 1 2 2 2 2 2 2 2 2 2 2 2 2 2 2 3 2 6 9 7 6 6 6 7 6 7 6 6 5 5 4 4 4
4 4 3 4 3 3 2 1 1 1 1 1 2 2 2 2 1 3 3 3 3 3 3 3 3 3 9 8 8 9 7 7 6 6 6 6 7 7 6 5 4 5
4 4 3 3 3 3 3 2 1 1 1 1 1 2 2 2 2 2 3 3 3 3 3 3 3 7 10 8 8 9 9 7 3 5 5 6 6 7 6 5 6 6
4 4 4 3 3 3 3 2 2 2 1 1 1 1 1 2 2 2 3 3 3 4 4 3 3 9 10 9 8 9 10 8 3 4 6 6 6 7 7 5 5 6
5 4 4 4 3 3 3 3 3 2 1 1 1 1 1 1 2 3 3 3 3 4 4 3 3 9 11 10 9 10 10 8 4 5 5 6 6 6 6 6 6 6
5 5 5 4 4 4 3 3 3 3 2 2 1 0 0 1 2 3 3 3 4 4 4 4 4 10 11 10 10 10 11 7 5 5 5 5 6 6 7 7 7 7
6 6 5 4 4 4 4 4 3 3 3 2 1 0 1 1 2 1 3 3 4 4 4 4 5 10 11 11 11 11 11 5 5 5 6 6 6 6 7 6 7 7
7 7 6 5 5 5 4 4 4 3 2 2 1 1 1 2 2 2 2 3 4 4 4 4 4 7 11 11 12 12 9 5 5 5 6 6 6 6 6 7 7 7
7 7 7 6 5 6 6 4 3 2 3 3 2 2 2 2 2 2 3 3 3 4 4 4 5 6 10 11 12 12 10 6 6 6 6 6 7 7 6 6 7 11
7 7 6 6 6 6 5 5 5 5 2 3 2 1 2 1 1 2 3 3 3 4 5 5 5 5 8 11 13 13 9 6 6 5 6 6 7 7 6 6 7 8
7 7 7 7 7 4 4 5 3 3 3 3 2 1 1 1 2 2 3 4 3 3 4 4 4 4 4 11 13 13 11 7 6 5 6 7 7 7 7 7 7 7
Wind_Direction
100 98 100 90 80 83 94 97 90 94 78 54 73 46 48 32 29 31 31 27 22 21 12 6 3 8 2 356 353 1 9 8 1 355 2 4 355 349 360 359 3 8
97 97 91 86 82 79 83 95 98 101 83 59 63 48 37 47 27 39 31 26 17 16 9 5 8 6 359 0 357 6 6 9 7 356 355 5 4 359 10 0 2 352
95 87 88 99 112 112 103 93 100 92 81 66 53 44 31 45 39 37 28 30 20 12 7 9 7 1 1 7 8 9 3 6 10 360 4 1 3 353 359 354 358 352
82 93 106 116 116 115 115 102 77 71 64 50 40 25 43 33 44 33 21 23 23 14 8 9 4 360 5 8 15 10 357 5 15 357 1 355 356 344 352 350 351 343
111 109 113 110 106 109 111 100 86 76 67 63 45 36 37 36 35 30 21 15 22 15 12 5 359 8 10 17 13 5 0 3 2 359 356 353 343 345 346 346 347 341
103 120 119 121 128 121 103 98 92 74 70 52 49 43 39 41 39 24 20 20 15 18 5 0 4 14 21 18 8 359 6 358 358 352 350 345 338 339 348 347 348 343
137 125 119 119 115 111 102 92 77 75 68 70 49 40 41 43 33 21 21 26 25 8 4 359 12 21 17 11 5 5 357 354 348 348 346 345 341 339 343 353 344 332
135 127 131 124 113 104 89 91 83 67 72 52 47 27 57 40 33 20 20 23 20 1 358 4 20 31 19 8 0 359 349 351 344 339 338 336 332 336 334 359 344 322
133 137 138 130 109 93 90 86 73 67 66 69 41 17 14 45 27 19 25 13 18 1 358 8 25 30 22 5 356 347 343 341 343 337 334 335 335 332 334 350 332 317
137 148 136 129 101 107 97 88 85 67 57 60 32 44 23 343 16 2 21 17 15 359 4 3 18 25 14 360 347 336 338 334 334 331 327 328 328 328 333 334 322 319
154 163 137 115 110 107 103 99 82 72 44 59 30 25 10 6 353 348 11 6 10 5 4 358 357 2 354 344 334 333 331 331 330 328 323 323 325 327 331 318 311 310
173 164 139 126 122 112 119 111 97 83 23 25 70 32 10 14 3 349 349 360 7 2 352 346 352 306 318 317 331 333 327 326 325 322 320 318 318 324 311 306 302 304
186 171 141 134 129 134 135 114 112 138 141 16 350 72 47 6 357 355 345 13 357 353 351 343 348 292 297 313 332 328 326 326 322 319 316 313 315 312 302 296 295 303
192 158 138 140 143 143 134 150 161 159 42 357 42 40 18 12 4 355 341 1 351 355 341 337 332 287 291 289 334 327 329 322 318 316 314 312 319 315 298 295 300 304
168 150 135 140 142 134 159 155 181 150 120 85 56 21 8 1 7 22 2 355 336 341 334 329 321 290 280 288 335 330 325 319 315 314 315 314 311 301 296 297 299 295
163 149 151 144 146 165 189 191 194 127 110 82 49 20 357 360 5 360 9 334 322 317 317 319 309 294 290 302 327 327 321 315 312 314 316 311 303 296 289 289 297 312
158 162 155 163 174 178 191 179 181 138 118 85 46 14 346 350 357 3 343 318 308 307 312 312 306 295 306 310 319 326 321 311 313 315 312 304 300 304 305 311 314 314
167 161 169 186 173 203 193 201 138 141 122 98 67 5 335 352 10 337 321 323 316 301 300 300 296 310 315 311 319 324 319 318 330 320 305 301 300 302 307 311 316 317
163 170 186 186 199 202 196 168 161 153 140 104 52 304 326 11 330 324 320 319 324 317 302 299 290 311 316 315 318 321 317 323 324 310 300 297 298 301 302 310 317 311
169 180 190 200 200 200 189 173 174 196 165 155 142 37 1 338 332 318 312 321 319 317 304 291 292 304 316 318 322 320 317 327 320 302 294 294 295 300 304 314 310 306
178 186 195 201 200 197 187 187 203 187 159 172 142 171 292 313 311 316 306 313 318 316 309 294 280 306 318 319 322 320 320 330 309 296 294 294 294 295 303 303 306 308
180 190 196 197 197 198 192 200 204 192 183 172 149 277 286 320 327 320 307 315 311 312 315 297 289 308 316 318 321 321 325 324 304 298 296 295 294 297 301 303 303 311
184 188 195 196 198 195 201 204 198 200 177 154 169 218 279 307 280 281 281 297 309 311 310 298 294 300 312 316 320 321 324 315 306 298 298 298 301 306 303 302 306 312
185 187 192 197 194 202 203 205 197 177 178 170 187 241 271 264 271 291 297 294 297 302 300 299 297 301 312 315 319 321 322 316 306 306 305 302 303 303 304 306 312 313
183 188 193 195 199 205 194 194 193 188 179 162 167 168 223 251 275 286 297 299 285 290 297 298 301 303 315 318 320 321 320 313 314 309 304 305 308 307 313 316 314 312
184 190 196 195 200 193 191 192 171 152 162 165 164 155 240 288 288 273 285 282 282 293 296 295 299 299 309 323 326 322 320 319 313 308 305 310 311 317 319 319 316 317